Vorticity
17 20 13 20 15 6 14 12 15 20 21 12 10 19 26 14 7 3 5 4 -14 22 18 12 -2 3 -3 -2 2 2 2 4 3 4 4 6 3 8 9 9 6 7 10 11
15 21 17 10 14 17 -0 6 14 16 23 17 18 19 19 21 9 6 7 0 13 -16 10 5 11 -0 1 -1 3 2 3 2 4 4 3 6 7 4 7 10 6 7 9 10
8 13 21 14 11 15 14 -7 -0 13 18 15 16 17 17 22 12 10 7 6 -12 15 7 4 12 4 3 5 1 0 2 1 4 6 3 6 7 7 5 6 8 5 5 6
7 10 16 16 8 17 15 9 7 7 18 16 12 15 24 23 19 12 7 1 -0 -11 -11 -1 1 -5 -2 -7 -3 -0 0 0 3 4 6 6 6 8 7 5 6 7 8 6
10 8 5 9 24 9 22 11 9 4 7 19 14 12 11 30 22 16 9 7 4 -5 -3 -5 29 9 -2 2 7 3 3 4 1 1 6 6 5 5 5 5 4 4 5 6
24 17 8 7 18 16 15 14 9 9 5 7 21 16 9 15 27 21 12 7 5 7 2 -5 -11 -7 8 3 4 0 -2 9 4 2 6 6 6 4 4 4 4 4 4 5
12 27 16 7 12 12 18 17 14 12 4 8 5 22 18 11 19 31 16 11 8 7 7 12 -4 8 4 -14 11 -0 -2 5 11 1 6 6 5 4 4 3 4 5 6 6
5 9 29 20 7 13 -1 8 8 15 18 4 8 15 24 20 8 39 21 11 10 8 3 5 10 -3 8 26 16 26 19 12 -1 1 5 6 4 4 4 4 5 6 6 6
9 4 7 27 20 9 10 11 4 9 13 13 17 16 15 23 16 5 34 18 15 9 6 1 7 6 -5 -4 18 9 3 19 12 -2 4 5 4 4 4 5 5 6 7 6
6 10 6 8 27 24 15 11 8 12 1 2 13 16 20 12 28 10 10 27 14 13 13 11 8 8 6 11 1 11 6 6 5 12 3 4 3 3 4 5 6 7 6 5
3 8 7 6 8 19 24 17 14 8 1 1 6 21 19 13 7 20 3 13 23 13 10 13 9 14 4 6 17 -9 3 21 0 4 5 4 2 4 5 6 7 6 5 6
3 4 7 9 7 6 13 28 18 7 12 10 13 17 20 18 9 12 16 26 21 21 12 9 7 7 6 0 4 -2 11 11 3 3 4 2 3 5 7 8 4 6 6 7
3 4 5 9 8 6 6 9 30 20 9 7 14 12 17 27 27 26 18 26 17 22 17 12 8 11 0 12 5 7 9 6 5 3 2 3 5 5 7 5 6 6 8 8
4 5 4 6 5 5 10 9 9 21 21 11 26 4 10 5 14 25 4 19 10 15 17 14 10 14 6 5 5 10 4 2 3 2 4 6 6 5 5 6 8 7 11 10
3 5 3 5 4 6 5 6 11 12 4 21 6 39 14 13 7 17 11 15 12 13 14 12 10 9 6 5 5 5 4 2 4 4 4 4 5 6 7 8 10 9 8 8
3 4 6 4 4 4 8 2 12 9 11 14 6 16 25 4 19 6 11 24 14 12 13 14 12 9 5 5 4 3 5 5 5 4 5 6 9 10 9 8 9 8 8 8
4 4 3 3 5 4 10 9 4 -2 6 10 27 -2 9 19 18 11 12 12 15 13 11 13 10 10 9 5 4 6 7 6 6 6 6 6 7 9 10 10 10 10 9 6
6 6 3 4 4 2 3 7 2 5 6 8 13 4 2 4 3 11 17 13 10 9 9 8 8 8 8 8 8 9 10 12 15 12 12 13 10 9 10 9 7 4 3 3
6 6 6 4 5 3 5 5 6 9 3 3 5 9 8 5 2 2 3 4 6 10 12 11 12 13 13 12 10 4 5 5 7 9 7 6 7 8 5 4 4 5 5 5
6 9 5 7 4 5 2 6 5 4 4 7 2 1 4 6 6 5 5 4 4 4 4 6 8 6 9 12 13 12 10 11 12 8 7 6 6 6 4 3 4 7 9 9
10 8 7 6 6 5 7 8 6 2 9 7 5 5 2 2 5 6 5 7 7 8 7 7 8 8 7 9 9 8 8 9 4 6 6 7 6 6 6 7 7 7 9 8
10 10 6 12 6 5 1 8 7 5 3 3 6 6 5 6 5 2 3 6 5 5 6 6 6 6 6 6 7 8 9 8 10 9 10 10 11 12 11 11 11 9 7 7
18 16 17 13 13 8 4 9 4 4 2 0 -0 1 1 2 4 7 9 8 7 7 6 5 5 5 4 5 5 4 3 4 3 4 6 7 6 7 7 10 16 22 22 17
17 20 17 16 15 18 15 10 6 7 6 7 6 4 6 8 9 7 7 8 9 9 11 13 16 21 21 19 18 17 16 16 16 15 14 13 13 14 14 10 8 8 12 11
12 12 14 16 15 19 19 14 11 10 11 10 9 7 9 9 7 9 9 11 12 14 14 17 19 18 18 18 17 17 18 19 18 18 16 14 14 14 14 14 13 12 13 12
13 18 17 17 10 11 9 15 11 9 7 7 7 11 11 10 10 12 12 13 14 15 16 14 9 8 9 10 9 8 9 10 11 12 14 15 14 14 14 15 14 13 11 9
Height
5683 5683 5682 5683 5684 5686 5687 5688 5688 5690 5691 5697 5706 5713 5722 5729 5737 5745 5753 5761 5767 5775 5781 5784 5792 5799 5805 5810 5815 5818 5821 5823 5824 5825 5826 5826 5826 5825 5825 5825 5825 5824 5824 5824
5682 5680 5680 5681 5681 5683 5685 5686 5686 5687 5689 5693 5699 5705 5713 5717 5730 5738 5744 5753 5762 5768 5771 5778 5785 5793 5800 5804 5809 5813 5815 5817 5819 5821 5821 5821 5821 5821 5820 5820 5820 5819 5819 5818
5683 5680 5678 5679 5680 5681 5682 5684 5684 5685 5686 5689 5692 5697 5701 5710 5722 5730 5737 5745 5754 5763 5766 5771 5779 5785 5791 5797 5802 5806 5809 5812 5813 5815 5816 5816 5816 5816 5815 5815 5814 5814 5814 5813
5683 5680 5677 5677 5677 5678 5679 5679 5682 5683 5684 5686 5687 5693 5699 5706 5712 5721 5729 5736 5746 5755 5757 5764 5773 5779 5785 5790 5795 5799 5802 5805 5807 5808 5809 5810 5811 5811 5810 5809 5809 5809 5808 5808
5684 5681 5677 5675 5674 5675 5677 5677 5678 5680 5681 5682 5685 5685 5697 5699 5703 5713 5721 5729 5737 5745 5753 5759 5767 5772 5778 5783 5789 5792 5796 5798 5800 5801 5803 5804 5804 5804 5804 5804 5804 5803 5802 5802
5683 5680 5677 5675 5672 5672 5673 5674 5675 5677 5677 5678 5680 5682 5685 5691 5701 5710 5716 5721 5728 5735 5744 5752 5758 5761 5769 5775 5780 5785 5788 5791 5792 5795 5796 5797 5797 5798 5798 5798 5797 5796 5796 5795
5684 5679 5675 5674 5672 5671 5671 5672 5673 5674 5672 5676 5675 5676 5688 5688 5692 5698 5706 5712 5720 5726 5734 5743 5750 5755 5763 5768 5772 5775 5779 5783 5786 5789 5789 5789 5790 5790 5790 5790 5790 5789 5788 5787
5684 5680 5675 5672 5671 5670 5669 5670 5670 5669 5669 5671 5671 5673 5677 5680 5684 5689 5695 5700 5711 5718 5725 5734 5743 5749 5754 5760 5764 5766 5771 5775 5779 5780 5781 5782 5782 5782 5782 5782 5781 5780 5780 5779
5684 5679 5676 5671 5668 5668 5667 5667 5667 5666 5666 5665 5666 5670 5670 5673 5677 5682 5688 5693 5702 5710 5716 5724 5732 5740 5744 5751 5756 5760 5763 5767 5769 5770 5772 5773 5774 5774 5774 5773 5772 5772 5771 5770
5684 5679 5674 5671 5667 5665 5663 5663 5662 5662 5662 5662 5662 5663 5665 5667 5670 5674 5680 5687 5694 5700 5706 5714 5722 5730 5737 5743 5747 5750 5754 5757 5760 5761 5762 5764 5765 5765 5764 5764 5763 5763 5762 5762
5681 5679 5675 5669 5666 5662 5660 5658 5658 5657 5658 5657 5657 5658 5659 5660 5664 5669 5673 5679 5684 5690 5698 5705 5712 5720 5727 5732 5737 5741 5745 5746 5751 5752 5753 5755 5755 5755 5755 5754 5754 5753 5753 5752
5677 5675 5672 5667 5664 5661 5657 5654 5653 5651 5653 5653 5651 5655 5653 5654 5658 5662 5667 5670 5674 5680 5686 5694 5702 5710 5716 5724 5729 5732 5736 5739 5740 5742 5743 5745 5744 5744 5744 5744 5743 5744 5743 5743
5672 5671 5668 5666 5662 5659 5656 5652 5649 5647 5647 5648 5647 5652 5647 5648 5650 5653 5657 5660 5663 5670 5677 5685 5693 5701 5708 5714 5719 5723 5725 5728 5730 5731 5733 5733 5733 5733 5733 5733 5733 5734 5733 5732
5665 5665 5662 5662 5659 5655 5652 5650 5648 5645 5642 5644 5643 5644 5642 5643 5643 5645 5648 5652 5656 5662 5669 5677 5685 5692 5698 5703 5708 5713 5715 5717 5719 5721 5721 5722 5722 5722 5722 5723 5723 5723 5722 5720
5656 5659 5656 5655 5654 5652 5649 5646 5645 5643 5640 5638 5638 5639 5639 5638 5638 5639 5642 5647 5652 5658 5663 5670 5678 5684 5689 5695 5699 5703 5706 5708 5708 5709 5710 5710 5710 5711 5712 5712 5711 5710 5710 5709
5647 5647 5649 5650 5647 5647 5646 5642 5640 5640 5639 5636 5634 5635 5637 5636 5637 5639 5643 5648 5652 5657 5662 5667 5672 5677 5681 5685 5689 5692 5694 5695 5697 5697 5698 5698 5699 5700 5700 5699 5699 5698 5696 5695
5637 5637 5638 5640 5641 5637 5641 5639 5635 5634 5634 5634 5633 5631 5631 5635 5637 5640 5642 5645 5650 5653 5657 5662 5666 5670 5673 5676 5678 5680 5682 5683 5684 5686 5686 5687 5687 5687 5687 5686 5685 5683 5682 5680
5627 5628 5625 5628 5629 5627 5635 5633 5632 5630 5628 5629 5630 5629 5629 5630 5631 5635 5639 5642 5644 5647 5650 5655 5658 5661 5664 5666 5668 5670 5672 5674 5675 5675 5675 5675 5675 5673 5672 5671 5670 5669 5667 5666
5614 5616 5616 5613 5618 5619 5625 5625 5625 5625 5625 5622 5623 5624 5625 5625 5627 5629 5631 5635 5638 5642 5645 5648 5650 5652 5655 5657 5658 5660 5661 5662 5662 5662 5662 5661 5659 5658 5657 5657 5655 5653 5652 5651
5599 5602 5603 5601 5604 5606 5612 5617 5615 5616 5617 5618 5616 5617 5618 5618 5620 5623 5625 5627 5629 5632 5636 5639 5641 5643 5645 5645 5646 5647 5648 5648 5648 5648 5646 5643 5644 5644 5643 5642 5640 5639 5637 5635
5584 5584 5587 5591 5587 5590 5601 5605 5604 5604 5609 5607 5608 5609 5609 5611 5612 5613 5616 5619 5621 5623 5625 5626 5627 5628 5629 5630 5631 5631 5631 5633 5631 5630 5629 5630 5629 5629 5628 5627 5625 5623 5622 5620
5568 5569 5573 5575 5576 5576 5591 5591 5591 5593 5591 5590 5594 5597 5599 5601 5603 5605 5608 5610 5611 5612 5612 5613 5613 5614 5614 5614 5615 5615 5616 5615 5615 5615 5614 5613 5613 5612 5610 5609 5607 5606 5604 5602
5551 5555 5559 5563 5566 5568 5565 5569 5575 5574 5577 5577 5578 5581 5585 5589 5593 5597 5599 5599 5598 5597 5598 5598 5598 5598 5599 5599 5599 5600 5599 5599 5599 5599 5598 5597 5595 5594 5592 5591 5590 5589 5587 5585
5536 5539 5542 5546 5552 5553 5553 5554 5556 5560 5562 5565 5567 5568 5570 5573 5575 5579 5580 5583 5584 5583 5583 5581 5582 5583 5584 5584 5584 5583 5583 5583 5582 5582 5581 5580 5579 5578 5577 5575 5573 5572 5570 5569
5522 5525 5529 5532 5536 5538 5539 5538 5541 5545 5548 5549 5549 5552 5555 5555 5556 5557 5560 5562 5563 5565 5566 5566 5566 5565 5565 5566 5567 5567 5567 5566 5566 5566 5564 5563 5562 5561 5560 5559 5557 5556 5554 5552
5511 5513 5514 5520 5523 5519 5525 5527 5528 5530 5532 5534 5535 5538 5538 5540 5541 5542 5543 5544 5545 5547 5550 5551 5551 5551 5551 5552 5552 5551 5551 5551 5551 5550 5549 5548 5546 5545 5544 5543 5541 5539 5537 5535